GPS III SV04

operational
NORAD ID: 46826 Int'l Des: 2020-078 Owner: SMC Country: US Constellation: GPS
MEOCIRCULARGNSS

关于 GPS III SV04

正在加载描述...

实时位置

正在加载3D地球...

即将过境

高度历史

Altitude vs Time

uPlot chart will show altitude changes over time

两行轨道根数

1 46826U 20078A 25289.20312859 -.00000051 00000-0 00000-0 0 9996
2 46826 54.0306 220.6753 0063297 203.5901 326.5064 2.00567135 36619
Epoch: Oct 16, 2025 • Age: 228 hours

当前状态

高度 20033.1 km
速度 3.90 km/s
星下点 3.51°N, 117.16°E
发射日期 Nov 5, 2020
运行时间 4.9 years
类型 navigation

技术详情

分类 Payload
质量 4400.00 kg
干质量 2160.00 kg
总质量 4400.00 kg
长度 3.40 m
直径 1.80 m
跨度 14.00 m
形状 Box + 2 pan
制造商 LMSSD
平台类型 A2100
阶段状态 In Orbit
所有者/国家 SMC/US

大型星座

Loading constellations...